DW6471 Weather Reports


Display with metric or nautical units.
time (UTC)temp
F
wind
direction
speed
MPH
gust
MPH
rain 1hr
in
rain 24hr
in
rain mn
in
humidity
%
barometer
mb
20260503194253 78 72 1.0 6.0 0.00 0.00 0.00 29 1019.4
20260503193754 78 117 1.0 5.0 0.00 0.00 0.00 30 1019.4
20260503193253 77 263 3.0 8.0 0.00 0.00 0.00 32 1019.6
20260503192753 76 318 3.0 8.0 0.00 0.00 0.00 30 1019.7
20260503192254 76 84 4.0 11.0 0.00 0.00 0.00 30 1019.8
20260503191753 77 35 3.0 11.0 0.00 0.00 0.00 28 1019.8
20260503191253 77 88 2.0 7.0 0.00 0.00 0.00 28 1019.8
20260503190754 77 337 1.0 6.0 0.00 0.00 0.00 30 1019.9
20260503190253 76 150 2.0 7.0 0.00 0.00 0.00 30 1020.1
20260503185753 76 129 3.0 8.0 0.00 0.00 0.00 26 1020.1
20260503185525 77 319 2.0 8.0 0.00 0.00 0.00 28 1020.3
20260503185024 77 60 3.0 9.0 0.00 0.00 0.00 27 1020.3
20260503184253 77 43 3.0 9.0 0.00 0.00 0.00 28 1020.4
20260503183750 77 21 2.0 8.0 0.00 0.00 0.00 35 1020.5
20260503183250 77 324 2.0 8.0 0.00 0.00 0.00 29 1020.5
20260503182749 76 159 2.0 8.0 0.00 0.00 0.00 30 1020.5
20260503182248 76 331 2.0 7.0 0.00 0.00 0.00 31 1020.6
20260503181747 76 315 3.0 9.0 0.00 0.00 0.00 32 1020.7
20260503181518 76 353 3.0 9.0 0.00 0.00 0.00 31 1020.8
20260503180747 76 283 2.0 8.0 0.00 0.00 0.00 33 1020.8
20260503180247 76 173 3.0 8.0 0.00 0.00 0.00 33 1020.8
20260503180017 76 153 3.0 8.0 0.00 0.00 0.00 32 1020.8
20260503175245 75 263 3.0 8.0 0.00 0.00 0.00 32 1020.9
20260503174746 75 323 3.0 8.0 0.00 0.00 0.00 33 1020.9
20260503174245 75 310 2.0 7.0 0.00 0.00 0.00 31 1020.9
20260503173745 75 338 3.0 9.0 0.00 0.00 0.00 34 1021.0
20260503173244 75 272 3.0 9.0 0.00 0.00 0.00 34 1021.0
20260503173014 75 302 3.0 9.0 0.00 0.00 0.00 31 1020.9
20260503172244 74 32 3.0 8.0 0.00 0.00 0.00 33 1021.0
20260503172014 75 288 2.0 10.0 0.00 0.00 0.00 36 1021.0
20260503171244 74 74 3.0 10.0 0.00 0.00 0.00 32 1021.1
20260503170743 74 341 3.0 8.0 0.00 0.00 0.00 34 1021.2
20260503170244 74 352 3.0 11.0 0.00 0.00 0.00 33 1021.3
20260503150737 71 335 4.0 12.0 0.00 0.00 0.00 38 1022.1
20260503150237 71 66 3.0 12.0 0.00 0.00 0.00 36 1022.1
20260503140229 67 78 2.0 5.0 0.00 0.00 0.00 49 1021.7
20260503131225 63 330 1.0 5.0 0.00 0.00 0.00 59 1021.1
20260503130725 62 84 1.0 4.0 0.00 0.00 0.00 59 1021.2
20260503130225 62 51 1.0 4.0 0.00 0.01 0.00 61 1021.1
20260503120221 50 15 0.0 1.0 0.00 0.01 0.00 93 1020.9
20260503110719 44 16 0.0 1.0 0.00 0.01 0.00 94 1020.3
20260503110219 44 16 0.0 1.0 0.00 0.02 0.00 94 1020.3
20260503100217 45 46 0.0 0.0 0.00 0.03 0.00 93 1020.0
20260503090213 46 46 0.0 1.0 0.00 0.15 0.00 93 1019.5
20260503081211 45 46 0.0 0.0 0.00 0.26 0.00 93 1019.3
20260503080711 45 46 0.0 0.0 0.00 0.28 0.00 93 1019.1
20260503080211 45 46 0.0 0.0 0.00 0.31 0.00 92 1019.2
20260503072710 46 46 0.0 0.0 0.00 0.47 0.00 92 1018.9
20260503072209 46 46 0.0 0.0 0.00 0.49 0.00 92 1018.9
20260503071709 47 46 0.0 0.0 0.00 0.53 0.00 92 1018.9
20260503071209 47 46 0.0 0.0 0.00 0.55 0.00 92 1019.0
20260503070709 47 46 0.0 0.0 0.00 0.56 0.00 92 1019.0
20260503070209 47 46 0.0 0.0 0.00 0.58 0.00 92 1019.0
20260503060207 48 46 0.0 0.0 0.00 0.90 0.00 89 1018.8
20260503054707 48 46 0.0 0.0 0.00 0.99 0.00 88 1018.7
20260503054205 48 46 0.0 0.0 0.00 1.00 0.00 88 1018.6
20260503053705 49 46 0.0 0.0 0.00 1.01 0.00 88 1018.6
20260503053437 49 46 0.0 0.0 0.00 1.01 0.00 88 1018.6
20260503052705 49 46 0.0 0.0 0.00 1.02 0.00 87 1018.6
20260503052436 49 46 0.0 0.0 0.00 1.03 0.00 86 1018.6
20260503051705 49 46 0.0 0.0 0.00 1.05 0.00 86 1018.6
20260503051205 49 46 0.0 0.0 0.00 1.06 0.00 86 1018.5
20260503050705 49 46 0.0 0.0 0.00 1.07 0.00 86 1018.5
20260503050435 49 46 0.0 0.0 0.00 1.09 0.00 86 1018.5
20260503045936 50 46 0.0 0.0 0.00 1.09 1.09 84 1018.5
20260503045206 50 46 0.0 0.0 0.00 1.09 1.09 84 1018.4
20260503044701 50 46 0.0 0.0 0.00 1.09 1.09 83 1018.4
20260503044201 51 46 0.0 0.0 0.00 1.09 1.09 83 1018.4
20260503043700 51 46 0.0 0.0 0.00 1.09 1.09 82 1018.4
20260503043157 51 46 0.0 0.0 0.00 1.09 1.09 82 1018.4
20260503042658 51 46 0.0 0.0 0.00 1.09 1.09 83 1018.4
20260503042157 50 46 0.0 0.0 0.00 1.09 1.09 84 1018.4
20260503041657 50 46 0.0 0.0 0.00 1.09 1.09 84 1018.3
20260503041155 51 46 0.0 0.0 0.00 1.09 1.09 84 1018.3
20260503040651 51 46 0.0 0.0 0.00 1.09 1.09 85 1018.3
20260503040149 51 46 0.0 0.0 0.00 1.09 1.09 84 1018.3
20260503035654 51 46 0.0 0.0 0.00 1.10 1.09 84 1018.2
20260503035650 51 46 0.0 0.0 0.00 1.09 1.09 84 1018.2
20260503034921 51 46 0.0 0.0 0.00 1.10 1.09 84 1018.2
20260503034147 51 46 0.0 0.0 0.00 1.10 1.09 83 1018.1
20260503033646 51 46 0.0 0.0 0.00 1.10 1.09 83 1018.0
20260503033145 51 46 0.0 0.0 0.00 1.10 1.09 83 1018.0
20260503032646 51 46 0.0 0.0 0.00 1.11 1.09 82 1018.0
20260503032141 51 46 0.0 0.0 0.00 1.11 1.09 82 1017.9
20260503031641 52 46 0.0 0.0 0.00 1.12 1.09 82 1017.8
20260503031142 52 46 0.0 0.0 0.00 1.15 1.09 81 1017.8
20260503030908 52 46 0.0 0.0 0.00 1.17 1.09 80 1017.8
20260503030137 53 46 0.0 0.0 0.00 1.18 1.09 80 1017.7
20260503025638 53 46 0.0 0.0 0.00 1.22 1.09 79 1017.7
20260503025133 53 46 0.0 0.0 0.00 1.23 1.09 79 1017.7
20260503024631 54 46 0.0 0.0 0.00 1.24 1.09 78 1017.7
20260503024132 54 46 0.0 0.0 0.00 1.25 1.09 78 1017.6
20260503023631 55 46 0.0 0.0 0.00 1.26 1.09 76 1017.6
20260503023131 56 46 0.0 0.0 0.00 1.29 1.09 75 1017.4
20260503022632 56 46 0.0 0.0 0.00 1.32 1.09 73 1017.3
20260503022130 57 46 0.0 0.0 0.00 1.34 1.09 70 1017.3
20260503021629 58 46 0.0 0.0 0.00 1.36 1.09 67 1017.2
20260503021130 58 46 0.0 0.0 0.00 1.38 1.09 65 1017.2
20260503020629 59 46 0.0 0.0 0.00 1.44 1.09 61 1017.1
20260503020359 59 46 0.0 0.0 0.00 1.49 1.09 60 1017.0
20260503015901 59 46 0.0 0.0 0.00 1.52 1.09 60 1017.0
20260503015401 60 9 0.0 0.0 0.00 1.54 1.09 60 1017.0
20260503014630 60 9 0.0 0.0 0.00 1.57 1.09 60 1016.9
20260503014129 60 77 0.0 0.0 0.00 1.58 1.09 59 1016.9
20260503013629 60 77 0.0 0.0 0.00 1.60 1.09 58 1016.9
20260503013129 61 77 0.0 0.0 0.00 1.64 1.09 57 1016.7
20260503012629 61 77 0.0 0.0 0.00 1.68 1.09 56 1016.6
20260503012129 61 309 0.0 0.0 0.00 1.71 1.09 55 1016.5
20260503011629 62 308 0.0 1.0 0.00 1.73 1.09 54 1016.5
20260503011129 62 308 0.0 3.0 0.00 1.73 1.09 53 1016.4
20260503010627 63 343 0.0 3.0 0.00 1.74 1.09 52 1016.4
20260503010124 63 267 0.0 1.0 0.00 1.75 1.09 51 1016.3
20260503005855 63 68 0.0 2.0 0.00 1.75 1.09 50 1016.3
20260503005355 64 68 0.0 2.0 0.00 1.75 1.09 49 1016.2
20260503004958 64 27 0.0 3.0 0.00 1.75 1.09 48 1016.0
20260503004855 64 74 0.0 2.0 0.00 1.75 1.09 49 1016.0
20260503003853 65 252 1.0 4.0 0.00 1.75 1.09 47 1015.9
20260503003122 65 311 1.0 4.0 0.00 1.76 1.09 46 1015.8
20260503002621 66 25 1.0 3.0 0.00 1.77 1.09 45 1015.7
20260503002356 66 351 1.0 4.0 0.00 1.81 1.09 45 1015.6
20260503002122 66 219 1.0 4.0 0.00 1.80 1.09 45 1015.6
20260503001119 67 351 2.0 4.0 0.00 1.85 1.09 43 1015.5
20260503000617 67 24 2.0 6.0 0.00 1.86 1.09 43 1015.4
20260503000347 67 42 2.0 7.0 0.00 1.86 1.09 42 1015.4
20260502235615 68 25 2.0 8.0 0.00 1.87 1.09 41 1015.4
20260502235115 68 37 2.0 8.0 0.00 1.94 1.09 41 1015.3
20260502234614 69 335 3.0 7.0 0.00 1.95 1.09 40 1015.2
20260502234113 69 53 3.0 9.0 0.00 1.95 1.09 40 1015.1
20260502233613 69 34 2.0 9.0 0.00 1.95 1.09 39 1015.0
20260502233113 70 50 2.0 6.0 0.00 1.95 1.09 38 1014.9
20260502232613 70 57 2.0 7.0 0.00 1.95 1.09 40 1014.9
20260502232113 70 326 3.0 7.0 0.00 1.97 1.09 38 1014.8
20260502231612 70 5 3.0 9.0 0.00 1.99 1.09 38 1014.8
20260502231111 71 351 3.0 10.0 0.00 1.99 1.09 38 1014.8
20260502230611 71 338 3.0 10.0 0.00 1.99 1.09 37 1014.7
20260502230112 71 323 4.0 9.0 0.00 1.99 1.09 38 1014.7
20260502225611 71 358 4.0 9.0 0.00 1.99 1.09 37 1014.7
20260502225111 71 219 3.0 11.0 0.00 1.99 1.09 41 1014.6
20260502224611 72 69 3.0 11.0 0.00 1.99 1.09 41 1014.6
20260502224111 72 342 3.0 7.0 0.00 2.00 1.09 41 1014.5
20260502223611 72 328 3.0 8.0 0.00 2.00 1.09 41 1014.4
20260502223112 72 325 3.0 8.0 0.00 2.01 1.09 40 1014.4
20260502222611 72 46 4.0 12.0 0.00 2.02 1.09 41 1014.2
20260502222111 72 330 4.0 12.0 0.00 2.02 1.09 41 1014.3
20260502221611 72 41 4.0 11.0 0.00 2.02 1.09 40 1014.2
20260502221110 72 66 4.0 11.0 0.00 2.03 1.09 40 1014.1
20260502220610 72 63 4.0 13.0 0.00 2.05 1.09 40 1014.1
20260502220108 72 1 5.0 13.0 0.00 2.06 1.09 39 1014.1
20260502215840 72 325 5.0 12.0 0.00 2.08 1.09 40 1014.0
20260502215109 73 330 4.0 12.0 0.00 2.09 1.09 39 1014.0
20260502214610 73 98 4.0 13.0 0.00 2.10 1.09 40 1013.9
20260502214109 72 36 4.0 13.0 0.00 2.12 1.09 39 1013.9
20260502213609 73 39 4.0 11.0 0.00 2.15 1.09 40 1014.0
20260502213109 73 13 3.0 8.0 0.00 2.16 1.09 40 1013.9
20260502212609 73 322 3.0 7.0 0.00 2.17 1.09 38 1013.9
20260502212109 73 5 4.0 10.0 0.00 2.18 1.09 38 1013.9
20260502211608 73 41 5.0 12.0 0.00 2.18 1.09 38 1013.8
20260502211107 73 295 5.0 12.0 0.00 2.18 1.09 38 1013.8
20260502210608 73 70 4.0 12.0 0.00 2.18 1.09 40 1013.8
20260502210107 73 335 4.0 11.0 0.00 2.18 1.09 45 1013.7
20260502205838 73 81 4.0 14.0 0.00 2.18 1.09 41 1013.9
20260502205108 73 68 4.0 14.0 0.00 2.18 1.09 43 1013.9
20260502204607 73 152 3.0 10.0 0.00 2.18 1.09 45 1013.9
20260502204107 73 9 4.0 10.0 0.00 2.18 1.09 46 1013.8
20260502203607 73 44 4.0 16.0 0.00 2.18 1.09 45 1013.9
20260502203108 73 56 4.0 16.0 0.00 2.18 1.09 44 1014.0
20260502202605 73 31 3.0 12.0 0.00 2.19 1.09 46 1014.1
20260502202105 73 116 3.0 10.0 0.00 2.19 1.09 49 1014.1
20260502201606 73 323 4.0 13.0 0.00 2.19 1.09 46 1014.1
20260502201336 73 345 3.0 13.0 0.00 2.19 1.09 47 1014.1
20260502200603 73 333 4.0 12.0 0.00 2.19 1.09 50 1014.2
20260502195602 72 43 5.0 14.0 0.00 2.19 1.09 51 1014.2
20260502195106 72 35 4.0 12.0 0.00 2.19 1.09 52 1013.9
20260502195102 72 0 4.0 14.0 0.00 2.19 1.09 53 1014.0